Location: Recife
(8.0585°S, 34.8848°W)
Time: 06:30:26
(UTC-03:00)

Vanguard 1 - Pass Details

Date: 21 April 2026
Orbit: 654 x 3817 km, 34.2° (Epoch: 13 May)

Event Time Altitude Azimuth Distance (km) Brightness Sun altitude
Rises 15:58:55 0° 226° (SW) 4,047 13.7 17.4°
Reaches altitude 10° 16:01:13 10° 222° (SW) 3,350 13.2 16.9°
Maximum altitude 16:09:54 60° 142° (SE) 2,179 11.8 14.8°
Drops below altitude 10° 16:26:12 10° 65° (ENE) 5,973 13.6 10.9°
Sets 16:31:52 0° 62° (ENE) 7,386 14.1 9.5°
